QPF
0.00 0.00 0.00 0.00 0.00 0.00 0.00 0.00 0.00 0.00 0.00 0.00 0.00 0.00 0.00 0.00 0.00 0.00 0.00 0.00 0.00 0.00 0.00 0.00 0.00 0.00 0.00 0.00 0.00 0.00 0.00 0.00 0.00 0.00 0.00 0.00 0.00 0.00 0.00 0.00 0.00 0.00 0.00 0.00 0.00 0.01 0.00
0.00 0.00 0.00 0.00 0.00 0.00 0.00 0.00 0.00 0.00 0.00 0.00 0.00 0.00 0.00 0.00 0.00 0.00 0.00 0.00 0.00 0.00 0.00 0.00 0.00 0.00 0.00 0.00 0.00 0.00 0.00 0.00 0.00 0.00 0.02 0.04 0.01 0.00 0.00 0.00 0.00 0.00 0.00 0.00 0.00 0.00 0.00
0.00 0.00 0.00 0.00 0.00 0.00 0.00 0.00 0.00 0.00 0.00 0.00 0.00 0.00 0.00 0.00 0.00 0.00 0.00 0.00 0.00 0.00 0.00 0.00 0.00 0.00 0.00 0.00 0.00 0.00 0.00 0.00 0.00 0.00 0.01 0.08 0.02 0.00 0.00 0.00 0.00 0.00 0.00 0.00 0.00 0.00 0.00
0.00 0.00 0.00 0.00 0.00 0.00 0.00 0.00 0.00 0.00 0.00 0.00 0.00 0.00 0.00 0.00 0.00 0.00 0.00 0.00 0.00 0.00 0.00 0.00 0.00 0.00 0.00 0.00 0.00 0.00 0.00 0.00 0.00 0.00 0.00 0.01 0.01 0.00 0.00 0.01 0.02 0.01 0.00 0.00 0.01 0.01 0.00
0.00 0.00 0.00 0.00 0.00 0.00 0.00 0.00 0.00 0.00 0.00 0.00 0.00 0.00 0.00 0.00 0.00 0.00 0.00 0.00 0.00 0.00 0.00 0.00 0.00 0.00 0.00 0.00 0.00 0.00 0.00 0.00 0.00 0.00 0.00 0.00 0.00 0.00 0.01 0.01 0.03 0.03 0.00 0.01 0.00 0.00 0.01
0.00 0.00 0.00 0.00 0.00 0.00 0.00 0.00 0.00 0.00 0.00 0.00 0.00 0.00 0.00 0.00 0.00 0.00 0.00 0.00 0.00 0.00 0.00 0.00 0.00 0.00 0.00 0.00 0.00 0.00 0.00 0.00 0.00 0.00 0.00 0.00 0.00 0.00 0.01 0.01 0.03 0.01 0.00 0.01 0.01 0.01 0.00
0.00 0.00 0.00 0.00 0.00 0.00 0.00 0.00 0.00 0.00 0.00 0.00 0.00 0.00 0.00 0.00 0.00 0.00 0.00 0.00 0.00 0.00 0.00 0.00 0.00 0.00 0.00 0.00 0.00 0.00 0.00 0.00 0.00 0.00 0.00 0.00 0.00 0.00 0.00 0.01 0.00 0.00 0.00 0.00 0.02 0.02 0.00
0.00 0.00 0.00 0.00 0.00 0.00 0.00 0.00 0.00 0.00 0.00 0.00 0.00 0.00 0.00 0.00 0.00 0.00 0.00 0.00 0.00 0.00 0.00 0.00 0.00 0.00 0.00 0.00 0.00 0.00 0.00 0.00 0.00 0.00 0.00 0.00 0.00 0.00 0.00 0.00 0.00 0.00 0.00 0.00 0.02 0.01 0.00
0.00 0.00 0.00 0.00 0.00 0.00 0.00 0.00 0.00 0.00 0.00 0.00 0.00 0.00 0.00 0.00 0.00 0.00 0.00 0.00 0.00 0.00 0.00 0.00 0.00 0.00 0.00 0.00 0.00 0.00 0.00 0.00 0.00 0.00 0.00 0.00 0.00 0.00 0.00 0.00 0.00 0.00 0.00 0.01 0.00 0.00 0.00
0.00 0.00 0.00 0.00 0.00 0.00 0.00 0.00 0.00 0.00 0.00 0.00 0.00 0.00 0.00 0.00 0.00 0.00 0.00 0.00 0.00 0.00 0.00 0.00 0.00 0.00 0.00 0.00 0.00 0.00 0.00 0.00 0.00 0.00 0.00 0.00 0.00 0.00 0.00 0.00 0.00 0.00 0.00 0.00 0.00 0.00 0.00
0.00 0.00 0.00 0.00 0.00 0.00 0.00 0.00 0.00 0.00 0.00 0.00 0.00 0.00 0.00 0.00 0.00 0.00 0.00 0.00 0.00 0.00 0.00 0.00 0.00 0.00 0.00 0.00 0.00 0.00 0.00 0.00 0.00 0.00 0.00 0.00 0.00 0.00 0.00 0.00 0.00 0.00 0.00 0.00 0.00 0.00 0.00
0.00 0.00 0.00 0.00 0.00 0.00 0.00 0.00 0.00 0.00 0.00 0.00 0.00 0.00 0.00 0.00 0.00 0.00 0.00 0.00 0.00 0.00 0.00 0.00 0.00 0.00 0.00 0.00 0.00 0.00 0.00 0.00 0.00 0.00 0.00 0.00 0.00 0.00 0.00 0.00 0.00 0.00 0.00 0.00 0.00 0.00 0.00
0.01 0.00 0.00 0.00 0.00 0.00 0.00 0.00 0.00 0.00 0.00 0.00 0.00 0.00 0.00 0.00 0.00 0.00 0.00 0.00 0.00 0.00 0.00 0.00 0.00 0.00 0.00 0.00 0.00 0.00 0.00 0.00 0.00 0.00 0.00 0.00 0.00 0.00 0.00 0.00 0.00 0.00 0.00 0.00 0.00 0.00 0.00
0.00 0.00 0.00 0.00 0.00 0.00 0.00 0.00 0.00 0.00 0.00 0.00 0.00 0.00 0.00 0.00 0.00 0.00 0.00 0.00 0.00 0.00 0.00 0.00 0.00 0.00 0.00 0.00 0.00 0.00 0.00 0.00 0.00 0.00 0.00 0.00 0.00 0.00 0.00 0.00 0.00 0.00 0.00 0.00 0.00 0.00 0.00
0.00 0.00 0.01 0.00 0.00 0.00 0.00 0.00 0.00 0.00 0.00 0.00 0.00 0.00 0.00 0.00 0.00 0.00 0.00 0.00 0.00 0.00 0.00 0.00 0.00 0.00 0.00 0.00 0.00 0.00 0.00 0.00 0.00 0.00 0.00 0.00 0.00 0.00 0.00 0.00 0.00 0.00 0.00 0.00 0.00 0.00 0.00
0.00 0.00 0.00 0.00 0.00 0.00 0.00 0.00 0.00 0.00 0.00 0.00 0.00 0.00 0.00 0.00 0.00 0.00 0.00 0.00 0.00 0.00 0.00 0.00 0.00 0.00 0.00 0.00 0.00 0.00 0.00 0.00 0.00 0.00 0.00 0.00 0.00 0.00 0.00 0.00 0.00 0.00 0.00 0.00 0.00 0.00 0.00
0.00 0.00 0.00 0.01 0.01 0.01 0.00 0.00 0.00 0.00 0.00 0.00 0.00 0.00 0.00 0.00 0.00 0.00 0.00 0.00 0.00 0.00 0.00 0.00 0.00 0.00 0.00 0.00 0.00 0.00 0.00 0.00 0.00 0.00 0.00 0.00 0.00 0.00 0.00 0.00 0.00 0.00 0.00 0.00 0.00 0.00 0.00
0.00 0.00 0.00 0.01 0.01 0.00 0.00 0.00 0.00 0.00 0.00 0.00 0.00 0.00 0.00 0.00 0.00 0.00 0.00 0.00 0.00 0.00 0.00 0.00 0.00 0.00 0.00 0.00 0.00 0.00 0.00 0.00 0.00 0.00 0.00 0.00 0.00 0.00 0.00 0.00 0.00 0.00 0.00 0.00 0.00 0.00 0.00
0.00 0.00 0.00 0.00 0.00 0.00 0.00 0.00 0.00 0.00 0.00 0.00 0.00 0.00 0.00 0.00 0.00 0.00 0.00 0.00 0.00 0.00 0.00 0.00 0.00 0.00 0.00 0.00 0.00 0.00 0.00 0.00 0.00 0.00 0.00 0.00 0.00 0.00 0.00 0.00 0.00 0.00 0.00 0.00 0.00 0.00 0.00
0.00 0.00 0.00 0.00 0.00 0.00 0.00 0.00 0.00 0.00 0.00 0.00 0.00 0.00 0.00 0.00 0.00 0.00 0.00 0.00 0.00 0.00 0.00 0.00 0.00 0.00 0.00 0.00 0.00 0.00 0.00 0.00 0.00 0.00 0.00 0.00 0.00 0.00 0.00 0.00 0.00 0.00 0.00 0.00 0.00 0.00 0.00
0.00 0.00 0.00 0.00 0.00 0.00 0.00 0.00 0.00 0.00 0.00 0.00 0.00 0.00 0.00 0.00 0.00 0.00 0.00 0.00 0.00 0.00 0.00 0.00 0.00 0.00 0.00 0.00 0.00 0.00 0.00 0.00 0.00 0.00 0.00 0.00 0.00 0.00 0.00 0.00 0.00 0.00 0.00 0.00 0.00 0.00 0.00
0.01 0.00 0.00 0.00 0.00 0.00 0.00 0.00 0.00 0.00 0.00 0.00 0.00 0.00 0.00 0.00 0.00 0.00 0.00 0.00 0.00 0.00 0.00 0.00 0.00 0.00 0.00 0.00 0.00 0.00 0.00 0.00 0.00 0.00 0.00 0.00 0.00 0.00 0.00 0.00 0.00 0.00 0.00 0.00 0.00 0.00 0.00
0.02 0.01 0.00 0.00 0.00 0.00 0.00 0.00 0.00 0.00 0.00 0.00 0.00 0.00 0.00 0.00 0.00 0.00 0.00 0.00 0.00 0.00 0.00 0.00 0.00 0.00 0.00 0.00 0.00 0.00 0.00 0.00 0.00 0.00 0.00 0.00 0.00 0.00 0.00 0.00 0.00 0.00 0.00 0.00 0.00 0.00 0.00
0.01 0.01 0.00 0.00 0.00 0.00 0.00 0.00 0.00 0.00 0.00 0.00 0.00 0.00 0.00 0.00 0.00 0.00 0.00 0.00 0.00 0.00 0.00 0.00 0.00 0.00 0.00 0.00 0.00 0.00 0.00 0.00 0.00 0.00 0.00 0.00 0.00 0.00 0.00 0.00 0.00 0.00 0.00 0.00 0.00 0.00 0.00
0.01 0.00 0.00 0.00 0.00 0.00 0.00 0.00 0.00 0.00 0.00 0.00 0.00 0.00 0.00 0.00 0.00 0.00 0.00 0.00 0.00 0.00 0.00 0.00 0.00 0.00 0.00 0.00 0.00 0.00 0.00 0.00 0.00 0.00 0.00 0.00 0.00 0.00 0.00 0.00 0.00 0.00 0.00 0.00 0.00 0.00 0.00
0.01 0.00 0.00 0.00 0.00 0.00 0.00 0.00 0.00 0.00 0.00 0.00 0.00 0.00 0.00 0.00 0.00 0.00 0.00 0.00 0.00 0.00 0.00 0.00 0.00 0.00 0.00 0.00 0.00 0.00 0.00 0.00 0.00 0.00 0.00 0.00 0.00 0.00 0.00 0.00 0.00 0.00 0.00 0.00 0.00 0.00 0.01
0.00 0.00 0.00 0.00 0.00 0.00 0.00 0.00 0.00 0.00 0.00 0.00 0.00 0.00 0.00 0.00 0.00 0.00 0.00 0.00 0.00 0.00 0.00 0.00 0.00 0.00 0.00 0.00 0.00 0.00 0.00 0.00 0.00 0.01 0.00 0.00 0.00 0.00 0.00 0.00 0.00 0.00 0.00 0.00 0.00 0.00 0.00
0.00 0.00 0.00 0.00 0.00 0.00 0.00 0.00 0.00 0.00 0.00 0.00 0.00 0.00 0.00 0.00 0.00 0.00 0.00 0.00 0.00 0.00 0.00 0.00 0.00 0.00 0.00 0.00 0.00 0.00 0.00 0.01 0.01 0.01 0.01 0.00 0.00 0.00 0.00 0.00 0.00 0.00 0.00 0.00 0.00 0.00 0.00
0.00 0.00 0.00 0.00 0.00 0.00 0.00 0.00 0.00 0.00 0.00 0.00 0.00 0.00 0.00 0.00 0.00 0.00 0.00 0.00 0.00 0.00 0.00 0.00 0.00 0.00 0.00 0.00 0.00 0.00 0.00 0.00 0.01 0.00 0.00 0.00 0.00 0.00 0.00 0.00 0.00 0.00 0.00 0.00 0.00 0.00 0.00
MSLP
1021.05 1020.91 1020.72 1020.50 1020.27 1019.97 1019.62 1019.30 1018.88 1018.59 1018.27 1017.90 1017.59 1017.13 1016.74 1016.40 1015.98 1015.52 1015.03 1014.60 1014.34 1014.02 1013.75 1013.47 1012.96 1012.39 1011.58 1010.65 1008.21 1006.21 1006.63 1007.11 1007.21 1007.28 1007.47 1007.44 1007.80 1008.51 1009.42 1010.45 1010.09 1009.57 1007.50 1006.25 1005.68 1005.20 1005.32
1021.25 1021.05 1020.77 1020.50 1020.32 1020.08 1019.71 1019.34 1018.93 1018.62 1018.28 1017.95 1017.52 1017.22 1016.67 1016.29 1015.86 1015.46 1015.01 1014.49 1014.03 1013.82 1013.43 1013.23 1012.89 1012.52 1011.89 1009.69 1006.27 1006.23 1006.58 1007.15 1006.99 1007.24 1007.15 1007.35 1007.42 1007.95 1008.93 1009.23 1009.28 1007.60 1006.52 1006.44 1005.88 1005.88 1005.55
1021.38 1021.10 1020.84 1020.60 1020.39 1020.19 1019.85 1019.44 1019.07 1018.67 1018.33 1017.98 1017.58 1017.18 1016.73 1016.18 1015.75 1015.29 1014.94 1014.47 1013.86 1013.30 1013.23 1012.94 1012.75 1012.44 1011.45 1007.97 1006.16 1006.39 1006.77 1006.65 1006.49 1006.84 1007.00 1006.76 1006.76 1007.69 1008.04 1008.02 1008.35 1007.94 1007.81 1006.99 1005.91 1005.80 1006.24
1021.37 1021.13 1020.88 1020.63 1020.51 1020.26 1019.92 1019.58 1019.20 1018.82 1018.42 1017.98 1017.63 1017.18 1016.72 1016.15 1015.69 1015.16 1014.63 1014.10 1013.57 1012.93 1012.59 1012.73 1012.48 1012.22 1010.30 1006.71 1006.38 1006.52 1006.47 1006.53 1006.15 1006.12 1006.47 1006.57 1006.79 1007.77 1007.83 1008.01 1007.97 1008.44 1008.25 1008.02 1007.75 1007.03 1006.25
1021.59 1021.34 1021.00 1020.75 1020.49 1020.21 1019.96 1019.65 1019.32 1018.93 1018.53 1018.04 1017.62 1017.18 1016.65 1016.20 1015.55 1015.02 1014.35 1013.45 1012.74 1012.36 1012.19 1012.41 1012.38 1011.76 1009.28 1006.39 1006.18 1005.46 1005.85 1006.25 1006.07 1005.85 1005.94 1005.89 1006.87 1007.42 1008.07 1008.38 1009.03 1008.86 1008.82 1008.37 1007.32 1006.91 1006.76
1021.70 1021.38 1021.09 1020.73 1020.44 1020.17 1019.91 1019.63 1019.28 1018.90 1018.52 1018.03 1017.55 1017.11 1016.64 1016.07 1015.61 1014.81 1013.92 1012.78 1011.91 1012.02 1012.08 1012.00 1011.66 1011.49 1008.52 1006.28 1005.41 1005.10 1005.41 1005.74 1006.19 1006.17 1006.31 1006.10 1007.02 1007.37 1008.16 1008.73 1008.97 1008.72 1008.89 1008.77 1008.18 1007.24 1007.27
1021.80 1021.44 1021.12 1020.83 1020.52 1020.21 1019.87 1019.56 1019.24 1018.90 1018.43 1017.93 1017.43 1016.92 1016.39 1015.91 1015.49 1015.11 1014.10 1012.71 1012.44 1012.17 1011.61 1010.54 1010.01 1008.91 1007.39 1006.09 1005.11 1005.28 1005.22 1005.72 1006.14 1006.62 1007.14 1006.90 1007.60 1007.74 1007.68 1007.76 1007.58 1007.73 1008.43 1008.23 1008.11 1007.65 1007.37
1021.89 1021.52 1021.17 1020.81 1020.51 1020.18 1019.83 1019.51 1019.19 1018.81 1018.32 1017.86 1017.32 1016.74 1016.09 1015.52 1015.04 1014.94 1014.99 1013.76 1011.29 1010.88 1010.48 1009.13 1008.69 1008.11 1006.70 1006.80 1006.59 1005.50 1005.50 1006.41 1006.61 1007.27 1007.47 1007.85 1007.70 1006.97 1007.08 1007.22 1007.01 1006.96 1007.47 1007.81 1007.68 1006.93 1007.86
1022.05 1021.70 1021.30 1020.91 1020.54 1020.22 1019.85 1019.47 1019.11 1018.72 1018.26 1017.73 1017.19 1016.63 1015.97 1015.12 1014.41 1014.33 1014.04 1012.27 1010.33 1010.66 1010.24 1007.94 1006.93 1006.80 1006.13 1006.09 1006.10 1005.27 1005.52 1006.08 1006.68 1007.45 1007.75 1007.84 1006.78 1006.61 1006.83 1006.48 1006.39 1006.40 1006.60 1006.80 1007.15 1007.11 1007.29
1021.96 1021.66 1021.39 1020.99 1020.56 1020.17 1019.83 1019.38 1018.94 1018.56 1018.18 1017.65 1017.10 1016.58 1016.05 1014.81 1014.19 1014.23 1012.72 1010.80 1010.26 1010.31 1010.47 1007.29 1006.03 1004.63 1005.07 1005.23 1005.15 1004.16 1004.55 1005.67 1006.64 1007.18 1007.70 1007.63 1006.46 1006.70 1006.30 1006.06 1005.92 1005.97 1005.72 1006.04 1006.47 1007.14 1007.69
1021.91 1021.54 1021.24 1020.95 1020.55 1020.10 1019.69 1019.26 1018.78 1018.28 1017.88 1017.48 1017.02 1016.47 1016.07 1015.81 1015.29 1014.10 1011.52 1010.60 1009.83 1009.89 1009.22 1005.53 1004.88 1003.16 1003.89 1004.90 1004.55 1003.88 1004.17 1005.02 1006.09 1006.87 1007.51 1006.81 1006.26 1006.02 1005.87 1005.26 1005.21 1005.29 1005.15 1005.81 1006.45 1007.54 1008.48
1021.77 1021.39 1021.03 1020.71 1020.39 1020.04 1019.59 1019.13 1018.59 1018.08 1017.58 1017.10 1016.68 1016.36 1016.07 1015.70 1015.39 1012.61 1011.65 1010.44 1009.77 1010.31 1007.69 1004.59 1003.65 1003.71 1004.50 1004.77 1004.65 1004.20 1004.53 1005.03 1005.63 1006.80 1007.12 1007.05 1005.88 1005.91 1005.06 1004.66 1004.73 1004.59 1005.29 1006.45 1007.55 1008.69 1010.12
1021.83 1021.37 1020.95 1020.55 1020.20 1019.84 1019.40 1018.93 1018.42 1017.87 1017.31 1016.72 1016.08 1015.79 1016.12 1015.64 1013.49 1012.08 1011.62 1011.06 1011.16 1009.93 1006.43 1004.77 1004.04 1004.04 1004.47 1004.93 1005.00 1004.92 1005.46 1005.93 1006.51 1007.59 1007.86 1007.30 1006.23 1005.49 1005.08 1004.88 1004.43 1004.92 1006.41 1008.08 1009.49 1010.62 1011.20
1021.72 1021.35 1020.85 1020.42 1020.01 1019.62 1019.15 1018.66 1018.18 1017.59 1016.93 1016.24 1015.47 1014.74 1013.95 1013.41 1012.73 1012.67 1012.39 1012.35 1011.29 1008.47 1006.66 1004.71 1004.00 1004.26 1004.70 1004.90 1005.18 1005.38 1005.86 1006.59 1006.83 1007.20 1008.16 1008.04 1006.84 1005.32 1004.54 1004.48 1004.69 1005.33 1006.39 1008.22 1010.04 1011.41 1011.88
1021.60 1021.20 1020.76 1020.35 1019.89 1019.46 1018.96 1018.51 1017.98 1017.32 1016.51 1015.65 1014.85 1013.92 1013.50 1011.21 1012.22 1013.02 1013.12 1012.77 1010.29 1008.22 1006.28 1005.47 1004.40 1004.94 1005.01 1004.90 1004.83 1005.57 1005.99 1006.39 1006.40 1006.63 1007.62 1007.64 1006.73 1004.90 1004.50 1004.34 1004.60 1005.09 1006.46 1007.43 1009.52 1011.35 1012.39
1021.47 1021.06 1020.61 1020.25 1019.79 1019.38 1018.92 1018.42 1017.79 1017.08 1016.18 1015.34 1014.89 1014.25 1012.12 1010.05 1011.28 1012.45 1012.94 1011.79 1009.80 1007.57 1006.59 1005.82 1005.12 1004.73 1004.79 1004.41 1004.98 1005.29 1005.41 1004.82 1005.33 1005.53 1005.78 1006.84 1006.89 1005.31 1004.59 1004.51 1004.71 1004.91 1006.26 1008.21 1010.14 1011.88 1013.01
1021.31 1020.97 1020.55 1020.07 1019.72 1019.32 1018.90 1018.37 1017.76 1016.97 1015.87 1014.86 1014.88 1013.79 1010.06 1009.75 1010.66 1012.22 1012.52 1011.13 1009.13 1007.38 1006.70 1006.23 1005.59 1005.43 1004.77 1004.18 1004.33 1004.27 1004.01 1003.50 1003.38 1004.26 1004.92 1006.12 1006.83 1005.59 1005.42 1005.15 1005.29 1005.64 1006.83 1008.73 1010.43 1011.75 1012.61
1021.19 1020.84 1020.48 1020.09 1019.67 1019.31 1018.86 1018.34 1017.80 1017.11 1015.97 1015.02 1015.07 1013.45 1010.22 1009.57 1011.27 1012.06 1011.88 1010.21 1008.98 1007.62 1006.74 1006.51 1005.42 1005.02 1004.41 1003.89 1003.71 1003.91 1003.52 1002.27 1001.77 1002.72 1004.67 1005.07 1006.33 1006.61 1005.84 1004.65 1004.79 1005.09 1005.92 1007.58 1009.90 1011.80 1012.33
1021.05 1020.67 1020.25 1019.94 1019.58 1019.21 1018.78 1018.32 1017.85 1017.38 1017.05 1017.04 1015.84 1013.32 1010.33 1009.74 1010.98 1011.81 1010.99 1009.83 1008.84 1007.92 1007.05 1006.50 1005.47 1004.53 1004.05 1004.30 1003.62 1002.90 1002.12 1000.89 1000.99 1001.95 1002.88 1004.34 1005.84 1006.67 1005.82 1005.23 1004.06 1004.48 1005.21 1006.39 1008.15 1009.83 1011.23
1020.86 1020.48 1020.11 1019.73 1019.39 1019.05 1018.68 1018.28 1017.85 1017.45 1017.17 1017.19 1016.41 1014.01 1011.51 1010.85 1010.56 1010.85 1010.70 1009.66 1008.58 1006.92 1006.36 1005.68 1004.98 1004.44 1004.00 1003.45 1002.93 1002.67 1001.81 1000.58 1000.77 1001.22 1001.40 1002.78 1005.10 1005.80 1005.90 1005.18 1004.58 1004.64 1004.61 1005.40 1006.79 1008.93 1009.75
1020.64 1020.30 1019.95 1019.55 1019.18 1018.85 1018.54 1018.16 1017.75 1017.31 1016.97 1017.24 1016.30 1014.32 1012.19 1011.49 1011.03 1010.79 1010.48 1009.51 1008.38 1007.47 1005.71 1004.83 1004.18 1003.97 1003.84 1003.62 1002.75 1002.38 1001.65 1001.01 1000.05 999.96 1001.46 1002.51 1004.65 1005.08 1004.76 1004.52 1004.38 1004.30 1004.49 1004.98 1006.03 1006.48 1007.72
1020.37 1019.96 1019.71 1019.42 1019.05 1018.69 1018.35 1018.02 1017.63 1017.11 1016.69 1016.93 1016.21 1014.71 1012.98 1012.11 1011.03 1010.50 1009.60 1008.92 1007.86 1006.75 1006.22 1004.77 1004.12 1002.96 1002.82 1002.86 1002.47 1002.35 1001.83 1001.74 1001.12 1001.24 1001.52 1002.64 1004.20 1004.76 1004.82 1004.33 1004.35 1004.25 1004.30 1004.18 1004.56 1005.41 1006.32
1020.20 1019.75 1019.50 1019.22 1018.89 1018.56 1018.23 1017.93 1017.54 1017.10 1016.60 1016.92 1015.70 1014.49 1014.07 1012.53 1011.55 1010.50 1009.69 1008.40 1007.12 1006.25 1004.70 1003.84 1003.31 1002.81 1001.92 1001.51 1001.45 1001.57 1001.57 1001.76 1001.84 1002.06 1002.23 1002.79 1004.14 1005.54 1005.74 1005.04 1004.78 1005.25 1005.51 1005.09 1005.66 1005.93 1006.54
1020.06 1019.64 1019.34 1019.03 1018.74 1018.45 1018.13 1017.76 1017.45 1017.26 1017.26 1017.60 1016.85 1016.07 1015.10 1013.64 1012.16 1011.12 1009.64 1008.49 1007.30 1006.19 1005.05 1003.00 1002.73 1002.21 1000.84 1000.75 1000.87 1001.26 1001.38 1001.60 1001.57 1001.72 1002.16 1003.09 1004.70 1005.65 1006.62 1006.21 1006.57 1007.13 1006.35 1005.50 1006.32 1007.15 1007.31
1019.93 1019.58 1019.23 1018.92 1018.60 1018.33 1017.97 1017.59 1017.36 1017.22 1017.10 1017.38 1016.87 1016.52 1015.61 1014.34 1012.62 1010.93 1009.65 1008.56 1007.19 1005.90 1004.61 1003.41 1002.55 1001.76 1000.96 1001.38 1002.57 1002.86 1002.99 1002.74 1002.05 1001.59 1001.85 1002.54 1004.59 1006.48 1007.13 1007.43 1007.94 1007.35 1007.17 1007.02 1006.28 1009.19 1008.78
1019.83 1019.48 1019.11 1018.79 1018.45 1018.15 1017.82 1017.49 1017.27 1017.06 1016.84 1016.63 1016.20 1015.86 1015.71 1014.81 1012.81 1011.57 1010.30 1009.21 1008.48 1007.52 1006.03 1004.59 1002.96 1002.20 1001.48 1002.83 1003.90 1004.72 1004.80 1004.02 1003.42 1002.58 1002.75 1003.34 1004.09 1006.17 1007.92 1008.48 1008.80 1008.54 1008.06 1007.80 1007.20 1010.18 1010.27
1019.75 1019.36 1019.01 1018.66 1018.29 1017.95 1017.65 1017.38 1017.11 1016.83 1016.55 1016.48 1016.04 1015.53 1015.54 1014.81 1012.49 1011.79 1011.07 1010.22 1009.39 1008.75 1008.12 1006.85 1005.78 1004.04 1002.88 1004.75 1005.48 1005.71 1005.44 1004.64 1004.73 1004.65 1004.78 1005.16 1006.21 1007.55 1008.58 1009.53 1009.61 1008.87 1008.17 1007.43 1008.98 1011.62 1010.89
1019.63 1019.24 1018.85 1018.50 1018.13 1017.75 1017.45 1017.17 1016.90 1016.63 1016.32 1016.18 1015.69 1014.92 1015.01 1014.59 1012.76 1011.65 1011.16 1010.81 1010.16 1009.45 1009.20 1007.83 1006.71 1006.18 1005.81 1006.19 1006.54 1006.47 1006.20 1005.70 1006.27 1006.83 1006.65 1007.17 1007.94 1008.97 1009.82 1010.73 1010.80 1009.26 1008.81 1009.80 1011.85 1011.88 1011.27
1019.45 1019.05 1018.68 1018.33 1017.94 1017.56 1017.21 1016.91 1016.63 1016.43 1016.19 1015.98 1015.92 1014.28 1014.01 1014.39 1012.75 1011.25 1010.22 1009.55 1009.60 1008.94 1008.88 1008.40 1008.36 1007.96 1007.53 1007.43 1007.29 1007.01 1007.04 1007.14 1007.71 1008.66 1008.19 1008.66 1008.42 1009.72 1011.33 1012.52 1012.30 1011.16 1011.14 1011.72 1011.93 1012.17 1012.02
Thickness
5712 5715 5718 5722 5727 5731 5736 5741 5747 5750 5755 5759 5764 5769 5773 5777 5784 5789 5795 5801 5805 5808 5812 5816 5821 5827 5835 5829 5839 5880 5878 5872 5873 5870 5859 5858 5845 5837 5821 5814 5825 5815 5839 5853 5859 5866 5866
5709 5711 5715 5719 5723 5727 5732 5737 5743 5748 5752 5757 5762 5767 5773 5777 5782 5788 5794 5801 5807 5810 5815 5819 5822 5826 5829 5818 5881 5882 5880 5873 5873 5869 5866 5863 5855 5853 5833 5828 5824 5849 5853 5852 5862 5857 5865
5704 5708 5711 5715 5719 5722 5727 5733 5738 5744 5749 5754 5759 5764 5770 5776 5781 5788 5793 5800 5807 5814 5816 5821 5824 5828 5825 5839 5883 5882 5880 5876 5881 5876 5865 5876 5872 5853 5849 5843 5853 5851 5828 5847 5858 5860 5854
5698 5702 5706 5710 5713 5717 5722 5727 5733 5738 5744 5750 5755 5761 5767 5773 5778 5785 5794 5801 5808 5815 5820 5822 5826 5828 5823 5877 5881 5878 5881 5876 5885 5887 5879 5882 5881 5859 5855 5857 5850 5830 5830 5806 5834 5847 5862
5691 5695 5699 5704 5708 5712 5717 5722 5726 5732 5738 5745 5751 5757 5763 5769 5776 5784 5793 5804 5812 5817 5821 5823 5825 5825 5825 5879 5870 5885 5884 5869 5877 5883 5884 5888 5875 5853 5849 5827 5808 5820 5802 5813 5833 5855 5850
5683 5687 5692 5697 5702 5706 5711 5716 5722 5727 5732 5739 5746 5753 5759 5766 5773 5782 5793 5805 5816 5818 5820 5824 5826 5816 5843 5853 5876 5884 5887 5880 5867 5868 5861 5864 5851 5836 5825 5812 5785 5802 5806 5816 5815 5843 5846
5675 5680 5684 5689 5694 5699 5705 5710 5716 5721 5728 5735 5741 5749 5756 5763 5770 5776 5788 5800 5802 5804 5815 5816 5823 5830 5849 5869 5885 5874 5882 5871 5866 5854 5826 5843 5821 5808 5825 5837 5839 5833 5819 5821 5829 5845 5843
5668 5672 5677 5681 5686 5691 5697 5703 5709 5715 5723 5730 5736 5744 5753 5761 5768 5773 5775 5786 5803 5813 5797 5827 5833 5836 5856 5858 5840 5862 5878 5847 5842 5819 5834 5822 5805 5838 5843 5843 5841 5836 5825 5820 5836 5847 5830
5660 5664 5668 5673 5678 5683 5689 5695 5701 5708 5715 5723 5731 5739 5748 5758 5767 5772 5777 5791 5813 5814 5794 5822 5840 5836 5847 5854 5838 5846 5862 5849 5836 5821 5823 5808 5830 5850 5841 5837 5834 5836 5829 5833 5827 5843 5842
5656 5659 5662 5666 5671 5676 5681 5687 5694 5700 5707 5716 5724 5733 5741 5755 5766 5766 5780 5802 5810 5815 5765 5801 5826 5845 5853 5856 5839 5873 5872 5853 5835 5819 5821 5817 5846 5838 5837 5833 5835 5818 5849 5848 5843 5829 5798
5651 5654 5657 5660 5664 5669 5674 5680 5687 5694 5701 5708 5716 5725 5733 5739 5745 5760 5787 5796 5809 5802 5741 5827 5826 5871 5854 5837 5845 5855 5873 5853 5825 5824 5821 5817 5832 5830 5826 5835 5848 5829 5858 5848 5847 5828 5814
5646 5649 5653 5656 5659 5663 5668 5674 5680 5687 5695 5703 5710 5717 5724 5731 5738 5765 5777 5791 5797 5748 5737 5815 5834 5826 5823 5831 5835 5848 5848 5857 5848 5824 5827 5823 5849 5840 5838 5852 5853 5862 5849 5835 5820 5803 5772
5639 5643 5646 5650 5654 5658 5662 5668 5674 5681 5688 5697 5707 5714 5715 5722 5743 5760 5768 5771 5732 5723 5797 5806 5809 5817 5812 5808 5817 5824 5820 5813 5800 5783 5786 5809 5822 5839 5849 5829 5847 5839 5809 5767 5767 5759 5759
5632 5635 5640 5644 5648 5652 5657 5663 5669 5676 5683 5692 5703 5714 5724 5732 5744 5747 5752 5735 5721 5760 5770 5807 5811 5805 5797 5806 5805 5810 5802 5789 5807 5803 5775 5772 5774 5828 5851 5835 5826 5826 5814 5767 5751 5749 5763
5625 5628 5632 5636 5641 5645 5651 5657 5663 5670 5680 5689 5700 5712 5718 5741 5738 5735 5729 5705 5727 5752 5785 5782 5794 5782 5785 5799 5804 5795 5789 5785 5802 5805 5775 5769 5780 5836 5842 5849 5842 5829 5807 5824 5784 5774 5762
5616 5620 5624 5628 5632 5637 5643 5649 5656 5665 5675 5684 5691 5696 5716 5742 5736 5727 5710 5711 5739 5771 5776 5776 5770 5780 5766 5783 5783 5782 5779 5808 5805 5815 5815 5794 5771 5822 5833 5842 5839 5831 5834 5792 5768 5750 5747
5607 5610 5614 5619 5624 5628 5633 5640 5647 5657 5669 5680 5682 5694 5728 5734 5731 5709 5696 5710 5747 5768 5771 5764 5763 5761 5775 5785 5782 5776 5790 5811 5821 5816 5819 5797 5781 5802 5819 5809 5801 5808 5797 5784 5773 5760 5740
5598 5600 5604 5609 5614 5618 5624 5630 5637 5646 5658 5669 5668 5683 5717 5726 5694 5690 5697 5729 5742 5753 5762 5761 5774 5770 5774 5786 5786 5782 5784 5809 5833 5825 5792 5805 5776 5767 5787 5823 5832 5823 5810 5796 5765 5758 5751
5587 5590 5594 5598 5602 5607 5613 5620 5626 5633 5639 5641 5648 5674 5706 5714 5678 5682 5703 5722 5733 5736 5742 5752 5761 5779 5784 5776 5775 5789 5804 5834 5837 5826 5806 5805 5769 5754 5772 5795 5825 5816 5817 5809 5791 5773 5753
5574 5577 5582 5587 5591 5596 5602 5608 5615 5621 5627 5630 5637 5663 5682 5690 5692 5693 5698 5706 5717 5746 5744 5755 5765 5776 5775 5780 5786 5787 5800 5827 5835 5830 5837 5823 5777 5774 5763 5780 5808 5805 5819 5813 5802 5764 5763
5565 5567 5570 5575 5580 5585 5590 5596 5603 5611 5617 5619 5626 5649 5673 5668 5678 5687 5692 5699 5710 5717 5750 5760 5764 5765 5767 5767 5775 5785 5801 5809 5831 5837 5826 5820 5780 5784 5796 5806 5814 5814 5814 5815 5805 5802 5787
5560 5562 5564 5567 5571 5575 5580 5585 5591 5600 5607 5609 5619 5639 5655 5660 5675 5682 5683 5695 5707 5720 5729 5740 5749 5770 5774 5770 5778 5776 5795 5796 5803 5819 5820 5813 5782 5795 5799 5809 5812 5808 5811 5821 5821 5814 5808
5555 5558 5559 5561 5564 5567 5571 5575 5581 5588 5597 5597 5616 5631 5636 5650 5662 5672 5677 5692 5710 5719 5738 5754 5759 5758 5766 5782 5796 5800 5809 5803 5808 5804 5803 5804 5783 5770 5767 5797 5797 5772 5788 5799 5799 5802 5797
5549 5552 5553 5555 5558 5561 5564 5568 5573 5577 5581 5583 5593 5604 5617 5632 5646 5657 5678 5693 5707 5717 5725 5755 5762 5759 5789 5803 5806 5804 5805 5802 5806 5805 5805 5790 5776 5765 5756 5772 5736 5770 5796 5804 5790 5791 5798
5542 5545 5547 5550 5553 5555 5559 5563 5567 5570 5573 5577 5584 5592 5605 5614 5636 5655 5669 5683 5702 5716 5728 5745 5760 5775 5788 5785 5756 5752 5757 5776 5794 5809 5808 5807 5776 5753 5744 5738 5756 5771 5778 5780 5786 5763 5784
5535 5538 5541 5544 5547 5551 5554 5558 5561 5565 5569 5575 5583 5590 5594 5606 5623 5644 5654 5672 5675 5686 5706 5726 5752 5762 5776 5749 5740 5728 5727 5750 5760 5784 5793 5791 5786 5765 5743 5741 5726 5752 5774 5792 5796 5738 5771
5531 5533 5535 5537 5540 5544 5548 5552 5556 5561 5566 5570 5578 5586 5589 5599 5621 5635 5639 5650 5670 5676 5679 5697 5715 5733 5758 5725 5720 5722 5731 5763 5747 5760 5770 5760 5756 5740 5733 5726 5737 5764 5773 5794 5742 5734 5769
5528 5529 5531 5532 5535 5538 5542 5546 5550 5555 5561 5567 5574 5585 5590 5595 5614 5632 5641 5643 5653 5664 5665 5687 5699 5711 5714 5713 5715 5722 5728 5741 5734 5739 5742 5744 5731 5729 5725 5713 5716 5763 5766 5739 5739 5756 5762
5526 5527 5528 5530 5532 5534 5538 5541 5545 5550 5554 5560 5565 5583 5590 5591 5606 5630 5644 5653 5657 5669 5671 5681 5683 5691 5701 5703 5710 5720 5728 5725 5719 5719 5735 5716 5731 5721 5713 5701 5728 5745 5743 5746 5749 5747 5751